Wetterdaten: Woche 30.03.09 - 05.04.09 (KW14)
Datum Zeit Temperatur Luftfeuchte Luftdruck Niederschlag Windrichtung Wind
30.03.2009 00:00 3,1 C 95 % 1011,6 hPa 0,0 l/m NO 2,8 km/h (1 Bft)
30.03.2009 01:00 3,0 C 95 % 1012,1 hPa 0,0 l/m N 2,3 km/h (1 Bft)
30.03.2009 02:00 2,8 C 95 % 1012,3 hPa 0,0 l/m N-NO 3,2 km/h (1 Bft)
30.03.2009 03:00 2,5 C 95 % 1012,5 hPa 0,0 l/m N-NO 4,7 km/h (1 Bft)
30.03.2009 04:00 2,1 C 95 % 1012,9 hPa 0,0 l/m N-NO 4,0 km/h (1 Bft)
30.03.2009 05:00 1,9 C 96 % 1013,3 hPa 0,0 l/m N-NO 2,7 km/h (1 Bft)
30.03.2009 06:00 1,5 C 96 % 1013,7 hPa 0,0 l/m N-NO 1,3 km/h (1 Bft)
30.03.2009 07:00 1,3 C 96 % 1014,4 hPa 0,0 l/m N-NO 3,6 km/h (1 Bft)
30.03.2009 08:00 1,7 C 97 % 1015,2 hPa 0,0 l/m NO 7,9 km/h (2 Bft)
30.03.2009 09:00 2,6 C 94 % 1015,9 hPa 0,0 l/m NO 14,2 km/h (3 Bft)
30.03.2009 10:00 3,7 C 92 % 1016,6 hPa 0,0 l/m O-NO 16,8 km/h (3 Bft)
30.03.2009 11:00 4,2 C 91 % 1017,1 hPa 0,0 l/m O-NO 18,9 km/h (3 Bft)
30.03.2009 12:00 4,1 C 93 % 1017,6 hPa 0,0 l/m O-SO 18,1 km/h (3 Bft)
30.03.2009 13:00 4,1 C 94 % 1017,8 hPa 0,0 l/m O-NO 17,8 km/h (3 Bft)
30.03.2009 14:00 5,3 C 88 % 1017,7 hPa 0,0 l/m O-NO 19,6 km/h (3 Bft)
30.03.2009 15:00 6,5 C 81 % 1017,4 hPa 0,0 l/m O 22,4 km/h (4 Bft)
30.03.2009 16:00 6,8 C 79 % 1017,5 hPa 0,0 l/m NO 21,3 km/h (4 Bft)
30.03.2009 17:00 6,5 C 81 % 1017,8 hPa 0,0 l/m O-NO 17,3 km/h (3 Bft)
30.03.2009 18:00 6,4 C 80 % 1018,1 hPa 0,0 l/m O 15,3 km/h (3 Bft)
30.03.2009 19:00 6,2 C 79 % 1018,5 hPa 0,0 l/m O 13,3 km/h (3 Bft)
30.03.2009 20:00 6,0 C 80 % 1019,1 hPa 0,0 l/m O-NO 14,9 km/h (3 Bft)
30.03.2009 21:00 5,1 C 84 % 1019,8 hPa 0,0 l/m O-NO 9,5 km/h (2 Bft)
30.03.2009 22:00 4,2 C 87 % 1020,3 hPa 0,0 l/m NO 5,7 km/h (1 Bft)
30.03.2009 23:00 3,6 C 90 % 1020,7 hPa 0,0 l/m O-NO 7,8 km/h (2 Bft)
31.03.2009 00:00 3,4 C 89 % 1020,9 hPa 0,0 l/m O 4,3 km/h (1 Bft)
31.03.2009 01:00 2,3 C 90 % 1020,8 hPa 0,0 l/m N-NO 6,1 km/h (2 Bft)
31.03.2009 02:00 1,6 C 94 % 1020,6 hPa 0,0 l/m NO 6,4 km/h (2 Bft)
31.03.2009 03:00 2,0 C 96 % 1020,2 hPa 0,0 l/m O-NO 11,8 km/h (2 Bft)
31.03.2009 04:00 2,6 C 95 % 1019,8 hPa 0,0 l/m O-NO 13,7 km/h (3 Bft)
31.03.2009 05:00 2,9 C 94 % 1019,8 hPa 0,0 l/m O-NO 17,4 km/h (3 Bft)
31.03.2009 06:00 3,0 C 93 % 1020,2 hPa 0,0 l/m O-NO 16,2 km/h (3 Bft)
31.03.2009 07:00 3,0 C 93 % 1020,4 hPa 0,0 l/m O-NO 16,0 km/h (3 Bft)
31.03.2009 08:00 3,3 C 91 % 1020,5 hPa 0,0 l/m O 17,8 km/h (3 Bft)
31.03.2009 09:00 4,1 C 88 % 1020,5 hPa 0,0 l/m O-NO 17,0 km/h (3 Bft)
31.03.2009 10:00 5,0 C 86 % 1020,4 hPa 0,0 l/m O-NO 19,6 km/h (3 Bft)
31.03.2009 11:00 5,9 C 83 % 1020,4 hPa 0,0 l/m O 19,4 km/h (3 Bft)
31.03.2009 12:00 7,7 C 75 % 1020,0 hPa 0,0 l/m O 22,5 km/h (4 Bft)
31.03.2009 13:00 7,9 C 72 % 1019,7 hPa 0,0 l/m O 24,1 km/h (4 Bft)
31.03.2009 14:00 7,8 C 72 % 1019,3 hPa 0,0 l/m O 21,0 km/h (4 Bft)
31.03.2009 15:00 8,0 C 69 % 1018,8 hPa 0,0 l/m O 22,2 km/h (4 Bft)
31.03.2009 16:00 7,9 C 70 % 1018,4 hPa 0,0 l/m O 18,6 km/h (3 Bft)
31.03.2009 17:00 7,7 C 70 % 1018,2 hPa 0,0 l/m O 21,5 km/h (4 Bft)
31.03.2009 19:00 7,2 C 73 % 1017,8 hPa 0,0 l/m O-NO 17,2 km/h (3 Bft)
31.03.2009 20:00 7,0 C 74 % 1017,7 hPa 0,0 l/m O 14,4 km/h (3 Bft)
31.03.2009 21:00 6,8 C 75 % 1017,3 hPa 0,0 l/m O-NO 13,2 km/h (3 Bft)
31.03.2009 22:00 6,3 C 77 % 1016,8 hPa 0,0 l/m NO 11,0 km/h (2 Bft)
31.03.2009 23:00 5,7 C 79 % 1016,4 hPa 0,0 l/m O-NO 10,3 km/h (2 Bft)
01.04.2009 00:00 5,5 C 80 % 1015,6 hPa 0,0 l/m NO 9,2 km/h (2 Bft)
01.04.2009 01:00 5,0 C 83 % 1015,2 hPa 0,0 l/m NO 9,7 km/h (2 Bft)
01.04.2009 02:00 4,6 C 85 % 1014,8 hPa 0,0 l/m NO 10,9 km/h (2 Bft)
01.04.2009 03:00 4,0 C 89 % 1014,2 hPa 0,0 l/m NO 12,4 km/h (3 Bft)
01.04.2009 04:00 3,9 C 90 % 1013,7 hPa 0,0 l/m N-NO 15,8 km/h (3 Bft)
01.04.2009 05:00 3,9 C 90 % 1013,4 hPa 0,0 l/m NO 15,0 km/h (3 Bft)
01.04.2009 06:00 3,8 C 90 % 1013,3 hPa 0,0 l/m O-NO 15,6 km/h (3 Bft)
01.04.2009 07:00 3,8 C 91 % 1013,4 hPa 0,0 l/m O-NO 13,0 km/h (3 Bft)
01.04.2009 08:00 3,9 C 92 % 1013,5 hPa 0,0 l/m O-NO 16,8 km/h (3 Bft)
01.04.2009 09:00 4,1 C 92 % 1013,7 hPa 0,0 l/m O-NO 17,8 km/h (3 Bft)
01.04.2009 10:00 4,5 C 92 % 1013,9 hPa 0,0 l/m O 19,3 km/h (3 Bft)
01.04.2009 11:00 5,0 C 91 % 1014,3 hPa 0,0 l/m O 18,5 km/h (3 Bft)
01.04.2009 12:00 5,4 C 90 % 1014,5 hPa 0,0 l/m O-NO 17,6 km/h (3 Bft)
01.04.2009 13:00 5,7 C 91 % 1014,7 hPa 0,0 l/m NO 18,6 km/h (3 Bft)
01.04.2009 14:00 6,3 C 89 % 1014,9 hPa 0,0 l/m O-NO 16,5 km/h (3 Bft)
01.04.2009 15:00 6,9 C 87 % 1014,9 hPa 0,0 l/m O 16,6 km/h (3 Bft)
01.04.2009 16:00 7,4 C 85 % 1014,9 hPa 0,0 l/m O-NO 15,7 km/h (3 Bft)
01.04.2009 17:00 8,5 C 82 % 1014,5 hPa 0,0 l/m O 12,4 km/h (3 Bft)
01.04.2009 18:00 9,4 C 80 % 1014,3 hPa 0,0 l/m O-NO 5,9 km/h (2 Bft)
01.04.2009 19:00 9,1 C 82 % 1014,3 hPa 0,0 l/m O 2,5 km/h (1 Bft)
01.04.2009 20:00 8,0 C 85 % 1014,5 hPa 0,0 l/m NO 2,9 km/h (1 Bft)
01.04.2009 21:00 7,4 C 90 % 1014,6 hPa 0,0 l/m N 3,3 km/h (1 Bft)
01.04.2009 22:00 8,0 C 91 % 1014,4 hPa 0,0 l/m N-NO 10,6 km/h (2 Bft)
01.04.2009 23:00 9,0 C 87 % 1014,2 hPa 0,0 l/m NO 18,5 km/h (3 Bft)
02.04.2009 00:00 8,7 C 87 % 1014,1 hPa 0,0 l/m O-NO 16,6 km/h (3 Bft)
02.04.2009 01:00 8,2 C 88 % 1014,0 hPa 0,0 l/m N-NO 13,3 km/h (3 Bft)
02.04.2009 02:00 7,9 C 90 % 1013,9 hPa 0,0 l/m NO 11,5 km/h (2 Bft)
02.04.2009 03:00 7,8 C 91 % 1013,6 hPa 0,0 l/m N-NO 12,9 km/h (3 Bft)
02.04.2009 04:00 7,8 C 94 % 1013,2 hPa 0,0 l/m NO 17,6 km/h (3 Bft)
02.04.2009 05:00 7,8 C 95 % 1013,2 hPa 0,0 l/m O 17,3 km/h (3 Bft)
02.04.2009 06:00 7,9 C 95 % 1013,0 hPa 0,0 l/m O-NO 16,4 km/h (3 Bft)
02.04.2009 07:00 8,2 C 93 % 1013,2 hPa 0,0 l/m O 16,9 km/h (3 Bft)
02.04.2009 08:00 8,4 C 91 % 1013,1 hPa 0,0 l/m O-NO 18,5 km/h (3 Bft)
02.04.2009 09:00 8,7 C 89 % 1013,2 hPa 0,0 l/m O-NO 18,8 km/h (3 Bft)
02.04.2009 10:00 9,4 C 86 % 1013,5 hPa 0,0 l/m O-NO 17,6 km/h (3 Bft)
02.04.2009 11:00 10,3 C 82 % 1013,6 hPa 0,0 l/m O-SO 18,8 km/h (3 Bft)
02.04.2009 12:00 12,7 C 75 % 1013,4 hPa 0,0 l/m O 18,1 km/h (3 Bft)
02.04.2009 13:00 14,5 C 68 % 1012,8 hPa 0,0 l/m O-NO 18,4 km/h (3 Bft)
02.04.2009 14:00 15,3 C 65 % 1012,4 hPa 0,0 l/m O 16,2 km/h (3 Bft)
02.04.2009 15:00 17,6 C 58 % 1011,9 hPa 0,0 l/m NO 19,7 km/h (3 Bft)
02.04.2009 16:00 18,6 C 54 % 1011,5 hPa 0,0 l/m O-NO 20,1 km/h (4 Bft)
02.04.2009 17:00 19,2 C 52 % 1011,0 hPa 0,0 l/m O 20,6 km/h (4 Bft)
02.04.2009 18:00 18,7 C 56 % 1010,8 hPa 0,0 l/m O-NO 18,5 km/h (3 Bft)
02.04.2009 19:00 17,4 C 60 % 1010,9 hPa 0,0 l/m O-NO 13,2 km/h (3 Bft)
02.04.2009 20:00 15,0 C 69 % 1011,2 hPa 0,0 l/m N-NO 7,0 km/h (2 Bft)
02.04.2009 21:00 12,9 C 76 % 1011,4 hPa 0,0 l/m N 7,6 km/h (2 Bft)
02.04.2009 22:00 11,9 C 80 % 1011,5 hPa 0,0 l/m N-NO 7,8 km/h (2 Bft)
02.04.2009 23:00 10,7 C 84 % 1011,5 hPa 0,0 l/m N-NO 4,1 km/h (1 Bft)
03.04.2009 00:00 9,7 C 85 % 1011,9 hPa 0,0 l/m N-NO 1,7 km/h (1 Bft)
03.04.2009 01:00 8,3 C 87 % 1012,3 hPa 0,0 l/m O-SO 0,9 km/h (0 Bft)
03.04.2009 02:00 7,3 C 90 % 1012,9 hPa 0,0 l/m O-SO 2,5 km/h (1 Bft)
03.04.2009 03:00 6,8 C 93 % 1013,1 hPa 0,0 l/m W-SW 3,3 km/h (1 Bft)
03.04.2009 04:00 6,6 C 95 % 1013,3 hPa 0,0 l/m S-SW 4,1 km/h (1 Bft)
03.04.2009 05:00 6,0 C 93 % 1013,9 hPa 0,0 l/m N 1,5 km/h (1 Bft)
03.04.2009 06:00 5,4 C 94 % 1014,2 hPa 0,0 l/m N 0,9 km/h (0 Bft)
03.04.2009 07:00 5,1 C 95 % 1014,8 hPa 0,0 l/m N 0,5 km/h (0 Bft)
03.04.2009 08:00 6,2 C 98 % 1015,5 hPa 0,0 l/m S-SW 3,3 km/h (1 Bft)
03.04.2009 09:00 8,6 C 96 % 1016,1 hPa 0,0 l/m S 9,9 km/h (2 Bft)
03.04.2009 10:00 11,6 C 84 % 1016,5 hPa 0,0 l/m SW 13,2 km/h (3 Bft)
03.04.2009 11:00 13,7 C 74 % 1016,5 hPa 0,0 l/m SW 20,1 km/h (4 Bft)
03.04.2009 12:00 15,4 C 63 % 1016,5 hPa 0,0 l/m SW 21,6 km/h (4 Bft)
03.04.2009 13:00 16,6 C 54 % 1016,4 hPa 0,0 l/m W-SW 20,2 km/h (4 Bft)
03.04.2009 14:00 17,5 C 49 % 1016,2 hPa 0,0 l/m S-SW 20,8 km/h (4 Bft)
03.04.2009 15:00 18,1 C 44 % 1016,0 hPa 0,0 l/m W-SW 18,8 km/h (3 Bft)
03.04.2009 16:00 18,4 C 42 % 1015,9 hPa 0,0 l/m SW 16,1 km/h (3 Bft)
03.04.2009 17:00 18,0 C 40 % 1015,8 hPa 0,0 l/m W-SW 15,7 km/h (3 Bft)
03.04.2009 18:00 16,9 C 46 % 1015,9 hPa 0,0 l/m W-SW 12,9 km/h (3 Bft)
03.04.2009 19:00 15,1 C 54 % 1016,0 hPa 0,0 l/m W 5,5 km/h (1 Bft)
03.04.2009 20:00 12,3 C 68 % 1016,7 hPa 0,0 l/m N 0,0 km/h (0 Bft)
03.04.2009 21:00 11,1 C 71 % 1017,4 hPa 0,0 l/m N 0,1 km/h (0 Bft)
03.04.2009 22:00 9,9 C 76 % 1017,8 hPa 0,0 l/m N 0,3 km/h (0 Bft)
03.04.2009 23:00 9,0 C 79 % 1018,2 hPa 0,0 l/m N 0,1 km/h (0 Bft)
04.04.2009 00:00 8,4 C 83 % 1018,4 hPa 0,0 l/m N 0,0 km/h (0 Bft)
04.04.2009 01:00 7,7 C 85 % 1018,4 hPa 0,0 l/m N 0,0 km/h (0 Bft)
04.04.2009 02:00 7,6 C 88 % 1018,3 hPa 0,0 l/m N 0,8 km/h (0 Bft)
04.04.2009 03:00 7,7 C 88 % 1018,1 hPa 0,0 l/m N 1,1 km/h (0 Bft)
04.04.2009 04:00 7,8 C 89 % 1018,3 hPa 0,0 l/m N 0,1 km/h (0 Bft)
04.04.2009 05:00 7,9 C 89 % 1018,4 hPa 0,0 l/m N 0,1 km/h (0 Bft)
04.04.2009 06:00 7,8 C 89 % 1018,4 hPa 0,0 l/m W-SW 2,0 km/h (1 Bft)
04.04.2009 07:00 7,8 C 90 % 1018,6 hPa 0,0 l/m S-SW 0,9 km/h (0 Bft)
04.04.2009 08:00 8,4 C 90 % 1018,7 hPa 0,0 l/m S-SW 0,7 km/h (0 Bft)
04.04.2009 09:00 9,5 C 87 % 1019,1 hPa 0,0 l/m S 4,8 km/h (1 Bft)
04.04.2009 10:00 10,3 C 85 % 1019,4 hPa 0,0 l/m SW 6,9 km/h (2 Bft)
04.04.2009 11:00 10,8 C 83 % 1019,6 hPa 0,0 l/m SW 4,3 km/h (1 Bft)
04.04.2009 12:00 11,2 C 81 % 1019,5 hPa 0,0 l/m SW 5,3 km/h (1 Bft)
04.04.2009 13:00 12,0 C 77 % 1019,3 hPa 0,0 l/m SO 5,9 km/h (2 Bft)
04.04.2009 14:00 13,3 C 74 % 1018,9 hPa 0,0 l/m NO 5,9 km/h (2 Bft)
04.04.2009 15:00 14,3 C 69 % 1018,8 hPa 0,0 l/m NO 7,6 km/h (2 Bft)
04.04.2009 16:00 15,0 C 64 % 1018,5 hPa 0,0 l/m N 6,0 km/h (2 Bft)
04.04.2009 17:00 15,7 C 60 % 1018,2 hPa 0,0 l/m O-NO 6,9 km/h (2 Bft)
04.04.2009 18:00 15,1 C 64 % 1018,2 hPa 0,0 l/m N-NO 6,3 km/h (2 Bft)
04.04.2009 19:00 14,4 C 67 % 1018,5 hPa 0,0 l/m O-NO 5,7 km/h (1 Bft)
04.04.2009 20:00 13,0 C 75 % 1019,2 hPa 0,0 l/m N 0,5 km/h (0 Bft)
04.04.2009 21:00 12,1 C 80 % 1020,0 hPa 0,0 l/m N 1,5 km/h (1 Bft)
04.04.2009 22:00 11,9 C 79 % 1020,6 hPa 0,0 l/m N-NO 1,9 km/h (1 Bft)
04.04.2009 23:00 11,4 C 82 % 1020,6 hPa 0,0 l/m N 0,7 km/h (0 Bft)
05.04.2009 00:00 10,8 C 86 % 1020,4 hPa 0,0 l/m N-NO 1,6 km/h (1 Bft)
05.04.2009 01:00 10,3 C 90 % 1020,3 hPa 0,0 l/m W-NW 3,2 km/h (1 Bft)
05.04.2009 02:00 9,9 C 92 % 1020,3 hPa 0,0 l/m NW 3,5 km/h (1 Bft)
05.04.2009 03:00 9,7 C 93 % 1020,1 hPa 0,0 l/m NW 6,7 km/h (2 Bft)
05.04.2009 04:00 9,8 C 92 % 1020,1 hPa 0,0 l/m N 0,1 km/h (0 Bft)
05.04.2009 05:00 9,6 C 93 % 1020,2 hPa 0,0 l/m N 0,5 km/h (0 Bft)
05.04.2009 06:00 9,5 C 94 % 1020,2 hPa 0,2 l/m N 0,7 km/h (0 Bft)
05.04.2009 07:00 9,4 C 94 % 1020,5 hPa 0,0 l/m N 0,4 km/h (0 Bft)
05.04.2009 08:00 9,4 C 95 % 1020,5 hPa 0,0 l/m O 1,1 km/h (0 Bft)
05.04.2009 09:00 9,9 C 94 % 1020,6 hPa 0,0 l/m O-SO 3,2 km/h (1 Bft)
05.04.2009 10:00 10,7 C 90 % 1020,6 hPa 0,0 l/m O 2,4 km/h (1 Bft)
05.04.2009 11:00 12,1 C 85 % 1020,8 hPa 0,0 l/m O 4,0 km/h (1 Bft)
05.04.2009 12:00 14,2 C 73 % 1020,4 hPa 0,0 l/m O-SO 8,9 km/h (2 Bft)
05.04.2009 13:00 15,2 C 66 % 1019,7 hPa 0,0 l/m NO 10,5 km/h (2 Bft)
05.04.2009 14:00 16,2 C 63 % 1019,0 hPa 0,0 l/m NO 10,8 km/h (2 Bft)
05.04.2009 15:00 16,5 C 61 % 1018,3 hPa 0,0 l/m N-NO 10,7 km/h (2 Bft)
05.04.2009 16:00 16,8 C 59 % 1017,7 hPa 0,0 l/m NO 12,4 km/h (3 Bft)
05.04.2009 17:00 16,2 C 61 % 1017,2 hPa 0,0 l/m NO 11,3 km/h (2 Bft)
05.04.2009 18:00 15,8 C 62 % 1017,0 hPa 0,0 l/m NO 9,9 km/h (2 Bft)
05.04.2009 19:00 14,6 C 67 % 1017,0 hPa 0,0 l/m N-NO 5,9 km/h (2 Bft)
05.04.2009 20:00 12,4 C 77 % 1017,3 hPa 0,0 l/m N-NO 7,1 km/h (2 Bft)
05.04.2009 21:00 11,8 C 79 % 1017,8 hPa 0,0 l/m N-NW 6,0 km/h (2 Bft)
05.04.2009 22:00 10,7 C 82 % 1017,8 hPa 0,0 l/m N-NW 4,5 km/h (1 Bft)
05.04.2009 23:00 9,7 C 87 % 1017,6 hPa 0,0 l/m N-NW 5,6 km/h (1 Bft)
Min-Datum _ 30.03.09 03.04.09 02.04.09 - - 30.03.09
_ Min-Zeit 06:50 17:35 18:50 - - 01:50
Minimum _ 1,3 C 38 % 1010,6 hPa - - 0,0 km/h (0 Bft)
Max-Datum _ 02.04.09 03.04.09 31.03.09 05.04.09 - 31.03.09
_ Max-Zeit 17:05 09:20 00:00 06:55 - 13:30
Maximum _ 19,3 C 99 % 1020,9 hPa 0,2 l/m - 30,6 km/h
O (5 Bft)
Durchschnitt _ 8,8 C 82 % 1016,6 hPa #0,2 l/m O-NO 10,2 km/h (2 Bft)